Lincoln, CA

9:50 PM PDT on September 21, 2017 (GMT -0700)
Lincoln Regional-Harder

Weather History for KLHM - September, 2012

Change the Weather History Date:

Monday, September 3, 2012

  Actual Average (KAUN) Record (KAUN)
Temperature  
Mean Temperature 74 °F -  
Max Temperature 95 °F 90 °F 109 °F (1950)
Min Temperature 53 °F 61 °F 50 °F (1959)
Cooling Degree Days 9    
Growing Degree Days 24 (Base 50)    
Moisture  
Dew Point 40 °F    
Average Humidity 33    
Maximum Humidity 67    
Minimum Humidity 11    
Precipitation  
Precipitation 0.00 in - - ()
Sea Level Pressure  
Sea Level Pressure 29.90 in    
Wind  
Wind Speed 4 mph (South)    
Max Wind Speed 9 mph    
Max Gust Speed -    
Visibility 10 miles    
Events      
Averages and records for this station are not official NWS values.
T = Trace of Precipitation, MM = Missing Value Source: NWS Daily Summary

Daily Weather History Graph

Daily Weather History Graph

Search for Another Location

Airport or City:

Trip Planner

Search our weather history database for the weather conditions in past years. The results will help you decide how hot, cold, wet, or windy it might be!

Date:

Astronomy

Sep. 03, 2012 Rise Set
Actual Time 6:36 AM PDT 7:31 PM PDT
Civil Twilight 6:09 AM PDT 7:58 PM PDT
Nautical Twilight 5:37 AM PDT 8:31 PM PDT
Astronomical Twilight 5:03 AM PDT 9:04 PM PDT
Moon 8:56 PM PDT (9/3) 9:47 AM PDT (9/3)
Length of Visible Light 13h 49m
Length of Day
12h 55m
Waning Gibbous, 90% of the Moon is Illuminated
Sep 3
Waning Gibbous
Sep 8
Last Quarter
Sep 15
New
Sep 22
First Quarter
Sep 29
Full

Hourly Weather History & Observations

Time (PDT) Temp. Dew Point Humidity Pressure Visibility Wind Dir Wind Speed Gust Speed Precip Events Conditions
12:15 AM 66.2 °F 42.8 °F 43% 29.88 in 10.0 mi East 9.2 mph - N/A   Clear
12:35 AM 66.2 °F 42.8 °F 43% 29.88 in 10.0 mi East 9.2 mph - N/A   Clear
12:55 AM 68.0 °F 42.8 °F 40% 29.88 in 10.0 mi East 8.1 mph - N/A   Clear
1:15 AM 68.0 °F 41.0 °F 37% 29.88 in 10.0 mi East 6.9 mph - N/A   Clear
1:55 AM 68.0 °F 41.0 °F 37% 29.88 in 10.0 mi East 8.1 mph - N/A   Clear
2:15 AM 68.0 °F 41.0 °F 37% 29.88 in 10.0 mi ESE 4.6 mph - N/A   Clear
2:35 AM 62.6 °F 41.0 °F 45% 29.88 in 10.0 mi South 4.6 mph - N/A   Clear
2:55 AM 62.6 °F 41.0 °F 45% 29.89 in 10.0 mi Calm Calm - N/A   Clear
3:15 AM 62.6 °F 42.8 °F 48% 29.89 in 10.0 mi SW 3.5 mph - N/A   Clear
3:35 AM 62.6 °F 42.8 °F 48% 29.89 in 10.0 mi Calm Calm - N/A   Clear
3:55 AM 62.6 °F 42.8 °F 48% 29.89 in 10.0 mi Calm Calm - N/A   Clear
4:15 AM 62.6 °F 41.0 °F 45% 29.89 in 10.0 mi Calm Calm - N/A   Clear
4:35 AM 55.4 °F 41.0 °F 58% 29.90 in 10.0 mi NNW 3.5 mph - N/A   Clear
4:55 AM 55.4 °F 42.8 °F 63% 29.90 in 10.0 mi North 4.6 mph - N/A   Clear
5:15 AM 55.4 °F 42.8 °F 63% 29.90 in 10.0 mi North 4.6 mph - N/A   Clear
5:35 AM 55.4 °F 42.8 °F 63% 29.90 in 10.0 mi Calm Calm - N/A   Clear
6:15 AM 55.4 °F 42.8 °F 63% 29.91 in 10.0 mi North 3.5 mph - N/A   Clear
6:35 AM 57.2 °F 44.6 °F 63% 29.91 in 10.0 mi North 3.5 mph - N/A   Clear
6:55 AM 53.6 °F 42.8 °F 67% 29.92 in 10.0 mi Calm Calm - N/A   Clear
7:15 AM 53.6 °F 42.8 °F 67% 29.93 in 10.0 mi ENE 3.5 mph - N/A   Clear
7:35 AM 59.0 °F 42.8 °F 55% 29.93 in 10.0 mi Calm Calm - N/A   Clear
7:55 AM 60.8 °F 44.6 °F 55% 29.94 in 10.0 mi Calm Calm - N/A   Clear
8:15 AM 62.6 °F 44.6 °F 52% 29.94 in 10.0 mi Calm Calm - N/A   Clear
8:35 AM 68.0 °F 42.8 °F 40% 29.94 in 10.0 mi Calm Calm - N/A   Clear
8:55 AM 69.8 °F 44.6 °F 40% 29.95 in 10.0 mi Calm Calm - N/A   Clear
9:15 AM 73.4 °F 42.8 °F 33% 29.95 in 10.0 mi Calm Calm - N/A   Clear
9:35 AM 77.0 °F 41.0 °F 28% 29.95 in 10.0 mi Calm Calm - N/A   Clear
9:55 AM 78.8 °F 39.2 °F 24% 29.95 in 10.0 mi Calm Calm - N/A   Clear
10:15 AM 78.8 °F 39.2 °F 24% 29.95 in 10.0 mi Calm Calm - N/A   Clear
10:35 AM 80.6 °F 37.4 °F 21% 29.95 in 10.0 mi Calm Calm - N/A   Clear
10:55 AM 84.2 °F 37.4 °F 19% 29.95 in 10.0 mi NE 3.5 mph - N/A   Clear
11:15 AM 84.2 °F 37.4 °F 19% 29.95 in 10.0 mi Calm Calm - N/A   Clear
11:35 AM 86.0 °F 39.2 °F 19% 29.95 in 10.0 mi West 3.5 mph - N/A   Clear
11:55 AM 87.8 °F 35.6 °F 16% 29.94 in 10.0 mi SW 5.8 mph - N/A   Clear
12:15 PM 87.8 °F 35.6 °F 16% 29.94 in 10.0 mi WSW 4.6 mph - N/A   Clear
12:35 PM 87.8 °F 41.0 °F 19% 29.93 in 10.0 mi NW 5.8 mph - N/A   Clear
12:55 PM 89.6 °F 35.6 °F 15% 29.93 in 10.0 mi SW 4.6 mph - N/A   Clear
1:15 PM 89.6 °F 37.4 °F 16% 29.92 in 10.0 mi WSW 8.1 mph - N/A   Clear
1:35 PM 91.4 °F 35.6 °F 14% 29.92 in 10.0 mi WSW 5.8 mph - N/A   Clear
1:55 PM 91.4 °F 39.2 °F 16% 29.91 in 10.0 mi West 6.9 mph - N/A   Clear
2:15 PM 91.4 °F 35.6 °F 14% 29.91 in 10.0 mi SW 6.9 mph - N/A   Clear
2:35 PM 93.2 °F 33.8 °F 12% 29.90 in 10.0 mi SW 6.9 mph - N/A   Clear
2:55 PM 93.2 °F 32.0 °F 11% 29.89 in 10.0 mi WSW 4.6 mph - N/A   Clear
3:15 PM 93.2 °F 32.0 °F 11% 29.89 in 10.0 mi WSW 4.6 mph - N/A   Clear
3:35 PM 95.0 °F 32.0 °F 11% 29.88 in 10.0 mi SSW 5.8 mph - N/A   Clear
3:55 PM 93.2 °F 32.0 °F 11% 29.88 in 10.0 mi SW 4.6 mph - N/A   Clear
4:15 PM 95.0 °F 33.8 °F 12% 29.87 in 10.0 mi SW 4.6 mph - N/A   Clear
4:35 PM 95.0 °F 35.6 °F 12% 29.86 in 10.0 mi WSW 6.9 mph - N/A   Clear
4:55 PM 95.0 °F 35.6 °F 12% 29.86 in 10.0 mi South 4.6 mph - N/A   Clear
5:15 PM 95.0 °F 35.6 °F 12% 29.85 in 10.0 mi Calm Calm - N/A   Clear
5:35 PM 93.2 °F 35.6 °F 13% 29.85 in 10.0 mi Calm Calm - N/A   Clear
5:55 PM 93.2 °F 33.8 °F 12% 29.85 in 10.0 mi West 4.6 mph - N/A   Clear
6:15 PM 91.4 °F 33.8 °F 13% 29.85 in 10.0 mi WSW 5.8 mph - N/A   Clear
6:35 PM 91.4 °F 35.6 °F 14% 29.85 in 10.0 mi WSW 3.5 mph - N/A   Clear
6:55 PM 89.6 °F 35.6 °F 15% 29.85 in 10.0 mi Calm Calm - N/A   Clear
7:15 PM 89.6 °F 35.6 °F 15% 29.84 in 10.0 mi Calm Calm - N/A   Clear
7:35 PM 87.8 °F 35.6 °F 16% 29.85 in 10.0 mi ESE 3.5 mph - N/A   Clear
7:55 PM 80.6 °F 37.4 °F 21% 29.85 in 10.0 mi Calm Calm - N/A   Clear
8:15 PM 78.8 °F 37.4 °F 23% 29.86 in 10.0 mi Calm Calm - N/A   Clear
8:35 PM 78.8 °F 39.2 °F 24% 29.87 in 10.0 mi Calm Calm - N/A   Clear
8:55 PM 68.0 °F 44.6 °F 43% 29.88 in 10.0 mi Calm Calm - N/A   Clear
9:15 PM 68.0 °F 44.6 °F 43% 29.88 in 10.0 mi ENE 5.8 mph - N/A   Clear
9:35 PM 64.4 °F 46.4 °F 52% 29.89 in 10.0 mi East 6.9 mph - N/A   Clear
9:55 PM 64.4 °F 46.4 °F 52% 29.89 in 10.0 mi East 6.9 mph - N/A   Clear
10:15 PM 66.2 °F 44.6 °F 46% 29.89 in 10.0 mi East 8.1 mph - N/A   Clear
10:35 PM 64.4 °F 44.6 °F 49% 29.90 in 10.0 mi East 6.9 mph - N/A   Clear
10:55 PM 64.4 °F 42.8 °F 45% 29.90 in 10.0 mi East 5.8 mph - N/A   Clear
11:15 PM 62.6 °F 44.6 °F 52% 29.91 in 10.0 mi East 6.9 mph - N/A   Clear
11:35 PM 64.4 °F 42.8 °F 45% 29.91 in 10.0 mi East 6.9 mph - N/A   Clear
11:55 PM 66.2 °F 41.0 °F 40% 29.91 in 10.0 mi East 6.9 mph - N/A   Clear